User: anonymous   Login
Location: Beaurecueil
(43.5122°N, 5.5450°E)
Time: 17:30:00
(UTC+00:00)
Language:

Cosmos 372 Rocket - Orbit

View from above orbital plane
View from above orbital plane
View from above satellite
View from above satellite

Ground track
Ground track

The orbit data is extracted from the following two-line orbital elements,

1  4589U 70086B   20337.93105897  .00000139  00000-0  50720-4 0  9995
2  4589  74.0585 138.6934 0020199  32.4970 327.7424 14.41611766629538
Epoch (UTC): 02 December 2020 22:20:43
Eccentricity: 0.0020199
inclination: 74.0585°
perigee height: 739 km
apogee height: 767 km
right ascension of ascending node: 138.6934°
argument of perigee: 32.4970°
revolutions per day: 14.41611766
mean anomaly at epoch: 327.7424°
orbit number at epoch: 62953

The dashed part of the orbit path shows where the satellite is in the earth's shadow,  

DLR